Location: Brachbach
(49.1847°N, 9.7240°E)
Time: 18:53:51
(UTC+00:00)

USA 267 - Pass Details

Date: 23 May 2024
Orbit: 1100 x 1107 km, 123.0° (Epoch: 21 May)

Event Time Altitude Azimuth Distance (km) Brightness Sun altitude
Rises 01:57:58 0° 68° (ENE) 3,921 7.3 -11.6°
Reaches altitude 10° 02:00:32 10° 62° (ENE) 2,962 6.7 -11.4°
Maximum altitude 02:06:42 47° 352° (N) 1,426 4.2 -10.7°
Drops below altitude 10° 02:12:53 10° 281° (W) 2,960 5.2 -10.1°
Sets 02:15:27 0° 276° (W) 3,918 5.8 -9.8°
